This is the latest recevied weather packets stored in our database for station/object KQ4OSL. If no packets are shown the sender has not sent any weather packets the latest 1 day(s).
| Time | Temp. | Humidity | Pressure | Rain* | Wind** | Luminosity | Snow |
|---|---|---|---|---|---|---|---|
| 1778031760 | 18.89° C | 75% | 1015 hPa | 0 mm | 0 m/s | 0 W/m² | - |
| 1778031457 | 19.44° C | 72% | 1014.9 hPa | 0 mm | 0 m/s | 0 W/m² | - |
| 1778031154 | 19.44° C | 70% | 1015.1 hPa | 0 mm | 0 m/s | 0 W/m² | - |
| 1778030850 | 20° C | 70% | 1015.1 hPa | 0 mm | 0 m/s | 0 W/m² | - |
| 1778030548 | 20° C | 69% | 1015.1 hPa | 0 mm | 0.45 m/s, 246° | 0 W/m² | - |
| 1778030245 | 19.44° C | 70% | 1015 hPa | 0 mm | 0 m/s | 0 W/m² | - |
| 1778029941 | 19.44° C | 71% | 1015.4 hPa | 0 mm | 0 m/s | 0 W/m² | - |
| 1778029640 | 19.44° C | 71% | 1015.1 hPa | 0 mm | 0 m/s | 0 W/m² | - |
| 1778029337 | 19.44° C | 71% | 1015 hPa | 0 mm | 0 m/s | 0 W/m² | - |
| 1778029034 | 20° C | 71% | 1014.8 hPa | 0 mm | 0 m/s | 0 W/m² | - |
| 1778028730 | 20° C | 69% | 1014.7 hPa | 0 mm | 0 m/s | 0 W/m² | - |
| 1778028426 | 20° C | 69% | 1014.8 hPa | 0 mm | 0 m/s | 0 W/m² | - |
| 1778028124 | 20° C | 68% | 1014.9 hPa | 0 mm | 0.45 m/s, 262° | 0 W/m² | - |
| 1778027820 | 20° C | 70% | 1014.8 hPa | 0 mm | 0 m/s | 0 W/m² | - |
| 1778027517 | 20.56° C | 69% | 1014.8 hPa | 0 mm | 0 m/s | 1 W/m² | - |
| 1778027212 | 20.56° C | 66% | 1014.9 hPa | 0 mm | 0.45 m/s, 252° | 1 W/m² | - |
| 1778026908 | 20.56° C | 67% | 1015.1 hPa | 0 mm | 0 m/s | 2 W/m² | - |
| 1778026604 | 20.56° C | 66% | 1015.1 hPa | 0 mm | 0 m/s | 4 W/m² | - |
| 1778026302 | 21.11° C | 65% | 1015.3 hPa | 0 mm | 0 m/s | 6 W/m² | - |
| 1778025999 | 21.11° C | 65% | 1015.4 hPa | 0 mm | 0 m/s | 7 W/m² | - |
| 1778025696 | 21.67° C | 64% | 1015.4 hPa | 0 mm | 0 m/s | 8 W/m² | - |
| 1778025394 | 21.67° C | 63% | 1015.4 hPa | 0 mm | 0 m/s | 8 W/m² | - |
| 1778025091 | 21.67° C | 63% | 1015.5 hPa | 0 mm | 0 m/s | 13 W/m² | - |
| 1778024788 | 22.22° C | 61% | 1015.5 hPa | 0 mm | 0.45 m/s, 256° | 19 W/m² | - |
| 1778024485 | 22.22° C | 62% | 1015.6 hPa | 0 mm | 0 m/s | 24 W/m² | - |
* Rain latest hour (hover to see other rain measurements)
** Current wind speed in m/s (hover to see current wind gust speed)